Wind_Speed
1 1 1 1 1 1 2 2 2 1 2 2 2 2 2 2 2 2 2 3 3 4 4 5 5 5 5 5 5 6 6 7 6 7 7 8 8 7 7 7 7 8 8 7 7 7 7 7 8
2 1 1 1 1 2 2 2 2 2 2 2 2 2 2 2 2 2 2 2 2 3 5 5 6 5 5 5 5 6 6 7 7 7 7 8 8 8 8 7 8 8 8 8 8 8 7 7 8
2 1 1 0 0 2 2 2 2 2 2 2 2 2 2 2 3 3 2 2 3 3 4 5 5 4 4 5 6 6 6 6 7 7 8 8 8 8 8 8 8 8 9 9 8 7 8 8 8
2 1 1 0 1 1 1 2 2 2 2 2 2 2 2 2 2 2 3 3 3 3 3 3 4 4 4 5 5 5 5 6 6 7 7 8 8 8 9 10 9 9 9 8 8 8 8 8 8
1 1 0 1 1 1 2 2 2 2 2 2 2 2 2 2 2 3 3 3 2 3 3 3 4 4 4 4 4 5 5 5 6 7 7 7 7 9 10 10 9 9 9 9 9 9 9 9 9
1 0 1 1 2 2 2 2 2 2 2 2 2 2 2 2 2 3 3 3 2 2 3 3 3 3 4 4 4 4 4 5 5 6 7 8 8 8 9 10 10 10 10 10 10 9 9 9 9
0 1 1 2 2 2 2 2 2 2 2 2 2 2 2 2 2 2 3 3 2 2 2 2 2 2 2 3 3 4 4 4 5 6 7 7 8 8 9 9 9 10 10 9 9 9 8 9 9
1 1 1 2 2 2 2 2 3 2 2 2 2 2 2 2 2 2 2 3 2 3 3 3 2 2 2 2 3 3 3 4 5 5 6 7 7 8 8 9 8 9 9 9 9 9 8 9 9
2 2 2 2 2 2 2 3 3 2 2 2 2 3 3 2 2 2 2 3 3 3 3 3 2 2 2 2 3 3 3 3 4 5 6 6 7 7 8 8 8 8 9 9 8 8 8 8 9
2 2 2 2 2 2 3 3 2 2 2 2 2 2 3 2 2 2 2 2 3 3 2 2 2 2 3 3 3 2 3 3 4 5 5 6 6 6 5 6 7 7 8 8 8 8 8 8 9
2 2 2 2 2 2 2 2 2 1 1 2 2 2 2 2 3 3 3 2 3 2 2 2 2 2 3 3 3 3 3 3 3 4 4 5 5 5 5 5 5 6 7 7 8 9 9 9 9
4 4 3 3 3 2 2 2 1 1 2 2 2 2 3 3 3 3 3 3 2 2 2 2 2 3 3 3 4 4 4 4 4 4 4 4 5 5 5 6 6 6 6 7 8 9 9 10 10
4 4 4 4 4 4 3 3 3 3 3 3 2 3 3 3 3 3 3 3 3 2 3 3 3 3 3 4 4 4 4 4 4 4 3 4 5 5 6 6 6 7 7 8 8 9 9 10 10
5 5 5 5 5 5 5 5 4 4 4 4 4 4 4 4 4 4 3 3 3 3 3 3 3 3 4 4 4 4 4 4 4 4 4 4 5 5 6 6 7 7 7 8 9 9 10 10 10
6 7 6 6 6 6 6 6 5 5 5 4 4 4 4 4 4 4 4 3 4 4 3 3 3 4 4 4 4 5 4 4 4 5 5 5 5 6 6 6 7 7 8 8 9 9 9 9 10
7 7 7 6 6 6 6 6 6 6 5 5 5 5 5 5 5 5 4 4 4 4 4 4 4 5 5 5 5 5 5 5 5 6 6 6 6 7 7 7 7 8 8 8 8 9 9 9 9
7 7 7 7 7 7 7 7 7 6 6 6 5 6 6 6 5 5 4 4 5 5 5 5 5 5 6 6 6 6 6 6 7 8 8 8 7 7 8 8 8 8 8 8 9 9 9 9 10
7 7 7 7 7 7 7 7 7 7 6 6 7 6 7 7 7 6 5 5 5 5 6 6 6 6 6 6 7 7 8 8 8 8 9 9 9 9 9 9 9 8 8 9 9 9 9 9 10
8 8 8 8 8 8 8 7 7 7 7 7 7 7 7 7 7 7 6 6 7 7 7 7 7 7 7 7 7 8 9 9 9 9 9 9 9 9 9 9 9 9 9 9 9 9 10 10 10
9 9 9 9 9 9 9 9 8 8 8 7 8 8 8 8 8 8 7 7 7 7 8 8 8 9 9 8 9 10 10 10 10 10 10 10 10 9 9 9 9 9 9 9 10 10 10 11 10
9 9 10 9 9 10 10 10 10 10 9 8 8 8 9 9 9 9 9 9 9 9 8 9 9 9 10 10 11 11 11 11 11 11 12 11 11 10 10 10 10 10 10 10 10 10 10 11 11
10 10 10 10 10 10 10 11 10 10 9 9 9 9 9 10 10 10 10 10 10 10 10 10 10 11 11 12 12 12 12 12 12 13 13 12 11 11 11 11 11 11 11 11 11 12 12 12 12
10 10 10 10 11 11 11 11 11 11 11 10 10 10 10 11 11 11 11 11 11 12 12 12 12 12 12 12 12 12 13 13 13 14 14 13 12 12 12 12 12 12 12 13 13 12 13 13 13
11 11 10 11 11 12 11 12 11 11 11 11 10 11 11 11 12 12 12 12 12 13 13 13 14 13 13 13 13 13 13 13 14 14 14 14 13 13 13 13 13 13 13 14 14 13 13 14 14
11 11 11 11 12 13 12 13 12 11 12 12 12 12 12 13 13 13 13 13 14 14 15 15 15 15 15 15 15 15 15 14 14 14 15 14 14 14 14 14 14 14 14 15 15 14 13 13 14
12 12 12 13 13 13 13 14 13 12 12 13 13 13 13 14 14 14 14 15 15 15 16 16 16 16 16 16 16 16 16 15 15 15 15 15 16 16 16 16 16 16 15 15 15 15 15 14 15
13 13 12 13 13 13 14 14 13 12 13 14 14 14 15 15 15 15 16 15 16 16 17 17 17 16 17 17 17 17 17 17 17 17 17 17 16 16 17 17 16 16 16 16 16 16 17 16 16
14 13 13 13 14 14 15 14 13 13 13 14 14 15 15 15 15 16 16 16 17 17 17 18 17 18 18 18 18 18 18 18 18 18 18 18 18 17 17 17 17 17 17 17 17 17 17 17 17
15 14 14 15 15 15 15 16 14 14 14 14 15 15 16 16 16 16 17 18 18 18 18 18 18 18 18 19 19 19 19 20 19 19 20 19 19 19 19 18 18 18 18 18 18 18 17 18 18
16 16 16 16 16 15 16 16 15 15 15 15 15 16 16 17 17 18 18 19 19 19 19 19 19 19 19 19 20 21 21 21 21 21 21 21 20 20 20 20 19 19 19 19 19 19 18 19 19
Wind_Direction
191 187 271 300 315 313 290 281 286 273 267 287 278 285 315 322 316 301 300 280 264 255 257 257 257 253 253 255 254 254 255 253 248 248 246 245 241 236 229 225 223 228 231 236 239 246 246 246 244
171 172 237 293 317 304 288 285 271 264 274 281 282 282 307 322 320 318 311 308 286 270 263 260 260 256 259 261 257 257 257 252 245 245 244 242 238 239 234 232 230 232 236 241 242 245 244 248 247
158 173 217 336 315 290 283 296 294 281 281 287 296 297 309 329 327 322 320 321 306 293 281 265 263 258 266 266 262 260 257 249 243 242 242 241 239 237 236 236 238 237 238 241 243 244 240 246 251
147 161 214 227 289 300 292 296 293 284 290 297 299 301 309 322 334 341 336 325 312 304 299 284 280 278 273 268 265 262 259 252 244 243 241 242 242 241 243 242 240 240 238 237 237 243 242 244 246
141 154 232 272 286 294 294 298 297 284 277 292 302 316 319 326 331 333 327 330 325 326 315 293 280 270 264 259 257 257 256 249 245 245 246 247 245 245 245 242 239 240 239 240 242 242 244 248 246
155 132 342 322 307 310 309 312 304 277 269 281 304 325 333 325 327 329 332 342 342 335 332 311 292 267 259 255 258 255 257 253 251 252 253 260 256 253 252 244 242 240 242 244 248 244 244 247 245
327 332 321 314 317 313 318 327 320 300 291 295 308 314 325 333 329 338 343 352 355 346 340 326 308 298 278 258 251 253 260 265 260 258 262 262 263 262 256 248 245 240 241 242 243 241 244 250 251
332 318 295 301 312 319 321 328 323 321 316 305 300 304 300 323 333 338 344 343 340 338 332 332 322 304 292 283 276 264 263 265 264 263 263 270 266 262 260 252 250 245 245 244 242 239 244 251 252
329 312 293 290 299 309 314 314 320 321 319 309 295 294 297 303 321 331 334 337 341 340 336 334 334 322 313 312 305 287 276 272 278 277 273 282 276 269 259 260 255 251 249 247 242 243 246 250 252
300 304 287 284 292 304 310 308 311 312 316 317 313 304 300 308 325 328 328 339 340 338 340 339 331 334 335 337 328 305 296 288 286 290 281 285 288 282 263 261 257 255 254 251 250 250 253 254 255
281 285 281 285 295 306 321 321 316 319 314 312 315 315 308 313 320 319 316 322 330 339 346 346 332 330 331 334 331 318 306 294 296 299 297 294 297 284 268 265 264 267 264 259 256 257 258 255 253
276 277 281 279 280 292 310 315 307 311 305 309 306 308 305 308 312 310 304 308 310 321 329 335 336 327 321 320 321 318 317 313 313 316 305 300 295 281 272 271 269 267 267 267 265 261 261 261 262
277 281 280 276 276 279 279 279 286 295 295 287 280 283 295 305 310 311 302 297 300 304 308 315 324 324 320 319 319 320 324 322 319 315 307 303 294 285 276 273 268 265 266 268 269 267 262 263 263
276 278 279 275 269 268 268 268 269 272 281 280 276 277 287 295 302 307 301 296 299 300 300 303 314 319 318 315 315 317 321 319 309 309 304 295 290 289 285 278 274 272 269 270 269 267 265 265 266
275 278 277 275 271 269 265 264 265 265 274 277 279 282 282 289 292 298 298 289 291 291 296 300 302 307 311 313 312 314 318 315 306 305 303 295 290 290 288 282 278 277 274 273 269 266 268 267 265
274 275 273 270 267 265 262 263 265 266 268 269 270 276 281 284 285 291 292 288 288 287 290 293 297 303 306 306 305 309 309 309 307 306 305 297 290 291 291 285 279 279 277 272 266 265 266 266 265
269 272 271 267 264 262 259 261 264 266 265 263 266 271 276 277 281 286 284 288 290 288 290 291 295 299 303 303 302 301 303 306 306 304 303 298 292 291 289 288 281 279 275 269 267 268 270 269 268
265 264 264 263 260 260 258 260 264 266 262 261 265 272 276 276 276 277 280 286 291 291 290 291 294 295 298 299 296 295 297 300 304 304 301 300 294 291 287 287 281 278 274 270 268 269 269 270 271
259 257 258 258 256 256 255 255 258 259 258 262 266 271 277 279 278 274 275 281 286 289 290 291 292 293 294 296 296 295 297 299 301 301 300 301 297 292 287 288 285 280 276 274 272 270 270 270 271
255 256 257 256 254 254 256 255 254 255 258 258 261 264 271 276 277 275 276 279 283 287 287 287 287 287 290 295 298 297 296 298 299 301 302 301 298 294 290 289 288 284 277 274 272 270 270 269 270
253 253 255 255 254 255 258 259 256 258 258 257 258 262 267 272 276 275 274 279 282 282 284 286 286 287 291 298 299 298 296 295 296 295 297 297 297 293 291 289 287 284 281 278 274 272 271 270 270
253 253 254 255 254 254 257 259 258 258 257 257 255 258 263 268 274 276 276 277 279 279 280 284 287 289 293 296 295 297 298 297 296 295 296 295 293 290 287 286 284 281 279 278 274 272 271 270 270
252 253 253 253 254 255 255 257 257 256 257 258 257 257 261 265 270 273 275 276 277 277 279 281 285 288 292 294 293 294 295 295 294 292 291 293 292 290 288 285 283 280 278 276 276 273 270 269 268
252 253 253 252 252 253 254 255 256 256 257 258 262 263 262 263 266 271 274 276 277 279 281 282 284 287 290 293 295 295 295 294 293 290 289 289 289 289 289 286 283 280 277 275 275 272 270 269 267
251 252 255 257 253 254 253 254 258 258 257 259 262 267 265 267 268 272 274 275 277 280 282 284 285 287 288 292 293 293 295 294 293 292 290 289 289 288 287 285 285 282 279 275 274 272 272 270 268
251 250 252 256 258 259 257 256 260 260 259 260 262 267 269 270 269 269 271 274 277 281 284 285 287 288 287 287 289 290 292 292 293 291 290 288 288 288 285 285 284 279 276 276 274 273 273 273 272
252 251 253 257 258 260 261 261 264 264 262 261 263 269 271 272 272 269 270 272 274 278 282 285 286 287 287 287 287 287 288 289 291 290 289 289 290 289 287 285 284 279 274 272 271 272 272 272 272
252 253 252 254 258 260 264 265 267 269 268 267 269 272 274 276 276 274 273 274 275 278 281 284 285 286 286 288 289 288 288 289 290 288 288 289 290 290 289 288 285 280 275 273 271 271 271 272 270
252 251 252 255 257 262 267 270 270 271 271 271 271 272 275 275 276 276 275 278 278 280 282 283 284 285 287 288 288 287 287 287 288 286 286 287 287 287 287 287 284 281 277 273 272 271 269 270 270
252 252 253 255 259 262 266 271 274 273 273 273 275 273 272 273 274 276 277 279 280 280 281 281 283 284 288 290 290 288 289 288 287 287 286 285 286 285 285 285 284 282 278 275 273 273 271 270 270
Height
5873 5875 5875 5877 5877 5877 5876 5876 5876 5875 5875 5875 5874 5874 5873 5873 5873 5875 5872 5869 5869 5868 5868 5868 5868 5867 5867 5867 5867 5867 5867 5867 5867 5867 5867 5867 5867 5867 5867 5867 5867 5868 5868 5868 5869 5869 5869 5869 5869
5872 5874 5876 5876 5877 5876 5876 5876 5875 5875 5874 5874 5873 5873 5872 5872 5871 5871 5869 5869 5868 5867 5867 5867 5866 5866 5866 5865 5865 5865 5865 5865 5865 5865 5865 5865 5865 5865 5866 5866 5866 5866 5867 5867 5867 5867 5868 5867 5867
5872 5874 5876 5876 5876 5876 5876 5875 5875 5874 5873 5873 5873 5872 5872 5871 5871 5870 5869 5868 5867 5866 5866 5865 5865 5864 5864 5864 5864 5864 5864 5864 5864 5864 5864 5864 5864 5864 5864 5865 5865 5865 5865 5865 5865 5865 5866 5865 5865
5874 5875 5876 5876 5875 5875 5875 5874 5874 5873 5873 5872 5872 5872 5871 5871 5870 5869 5868 5867 5866 5865 5864 5864 5864 5863 5863 5863 5863 5863 5862 5862 5862 5862 5862 5862 5862 5862 5863 5863 5863 5863 5863 5863 5863 5864 5864 5864 5863
5874 5875 5876 5875 5875 5875 5874 5873 5873 5872 5872 5872 5871 5871 5870 5870 5869 5868 5867 5866 5866 5865 5864 5863 5863 5862 5862 5862 5862 5861 5861 5861 5861 5861 5861 5861 5861 5861 5861 5861 5861 5862 5862 5862 5862 5862 5862 5862 5862
5875 5875 5876 5875 5874 5874 5873 5873 5872 5872 5871 5871 5871 5870 5870 5869 5868 5867 5866 5866 5865 5864 5863 5863 5862 5862 5861 5861 5861 5861 5860 5860 5860 5860 5859 5859 5859 5859 5859 5859 5859 5860 5860 5860 5860 5860 5860 5860 5860
5875 5875 5874 5874 5874 5873 5873 5872 5871 5871 5871 5871 5870 5870 5869 5868 5868 5867 5866 5865 5865 5864 5863 5862 5862 5861 5861 5860 5860 5860 5860 5859 5859 5858 5858 5857 5857 5857 5857 5858 5858 5858 5858 5858 5858 5858 5858 5859 5859
5874 5875 5874 5874 5873 5873 5872 5871 5871 5870 5870 5870 5869 5869 5868 5868 5867 5866 5865 5865 5864 5863 5863 5862 5861 5861 5860 5860 5859 5859 5859 5858 5858 5857 5857 5856 5855 5855 5856 5856 5856 5856 5856 5856 5856 5857 5857 5857 5857
5873 5875 5873 5873 5873 5872 5871 5871 5870 5870 5869 5869 5868 5868 5868 5867 5866 5866 5865 5865 5864 5863 5863 5862 5861 5860 5860 5859 5859 5858 5858 5857 5857 5856 5855 5855 5854 5853 5854 5854 5854 5854 5854 5855 5855 5855 5855 5855 5855
5873 5873 5873 5873 5872 5871 5871 5870 5870 5870 5869 5868 5868 5867 5867 5866 5866 5865 5865 5864 5864 5863 5862 5862 5861 5860 5860 5859 5858 5858 5857 5857 5856 5855 5854 5853 5852 5851 5851 5852 5853 5853 5853 5853 5853 5853 5853 5853 5853
5872 5872 5872 5871 5871 5870 5870 5870 5869 5869 5869 5868 5867 5867 5866 5866 5865 5865 5864 5864 5863 5863 5862 5861 5861 5860 5859 5859 5858 5857 5856 5856 5855 5854 5854 5853 5852 5851 5850 5851 5851 5851 5851 5851 5851 5851 5851 5851 5851
5871 5871 5871 5870 5870 5870 5869 5869 5869 5868 5868 5868 5867 5866 5866 5865 5865 5864 5864 5863 5863 5862 5862 5861 5860 5860 5859 5858 5858 5857 5856 5855 5854 5853 5853 5852 5851 5850 5850 5850 5850 5850 5850 5850 5850 5849 5849 5849 5849
5870 5870 5869 5869 5869 5869 5869 5868 5868 5868 5867 5867 5866 5866 5865 5865 5864 5864 5863 5863 5862 5862 5861 5861 5860 5859 5858 5858 5857 5856 5855 5854 5853 5853 5852 5851 5851 5850 5849 5849 5848 5848 5848 5848 5848 5847 5847 5847 5847
5869 5868 5868 5868 5868 5867 5867 5867 5867 5867 5866 5866 5866 5865 5865 5864 5864 5863 5862 5862 5862 5861 5861 5860 5859 5858 5858 5857 5856 5855 5854 5853 5852 5852 5851 5850 5849 5849 5848 5848 5847 5847 5846 5846 5846 5845 5845 5845 5845
5867 5867 5867 5866 5866 5866 5866 5866 5866 5866 5865 5865 5865 5864 5864 5863 5863 5862 5862 5861 5861 5860 5860 5859 5859 5858 5857 5856 5855 5854 5853 5852 5851 5850 5849 5849 5848 5847 5847 5846 5846 5845 5844 5844 5843 5843 5843 5843 5842
5865 5865 5865 5865 5865 5865 5866 5865 5865 5864 5864 5864 5864 5863 5863 5862 5862 5861 5861 5860 5860 5859 5859 5858 5858 5857 5856 5855 5854 5853 5852 5851 5850 5849 5848 5847 5846 5845 5845 5844 5843 5843 5842 5842 5841 5841 5841 5841 5840
5863 5863 5863 5864 5863 5863 5863 5863 5863 5863 5863 5863 5862 5862 5862 5861 5861 5860 5860 5859 5859 5858 5858 5857 5857 5856 5855 5854 5853 5852 5851 5850 5849 5848 5847 5846 5844 5843 5843 5842 5841 5841 5840 5840 5840 5839 5839 5838 5838
5862 5862 5861 5861 5861 5861 5861 5861 5861 5861 5861 5861 5861 5860 5860 5860 5859 5859 5859 5858 5857 5857 5856 5856 5855 5855 5854 5853 5852 5851 5850 5848 5847 5846 5845 5844 5842 5841 5840 5840 5839 5838 5838 5837 5837 5837 5836 5836 5836
5859 5859 5859 5859 5859 5859 5859 5859 5859 5859 5859 5859 5859 5859 5858 5858 5858 5857 5857 5857 5856 5855 5855 5854 5854 5853 5852 5851 5850 5849 5848 5847 5845 5844 5843 5841 5840 5839 5838 5837 5836 5836 5835 5835 5834 5834 5833 5833 5833
5856 5856 5857 5857 5857 5857 5857 5857 5857 5857 5857 5857 5857 5857 5857 5856 5856 5856 5855 5855 5854 5854 5853 5852 5852 5851 5850 5849 5848 5847 5846 5844 5843 5841 5840 5839 5837 5836 5835 5835 5834 5833 5832 5832 5831 5831 5830 5830 5830
5853 5854 5854 5854 5854 5854 5855 5855 5855 5855 5855 5855 5855 5855 5855 5855 5854 5854 5853 5853 5852 5852 5851 5850 5850 5849 5848 5847 5846 5844 5843 5842 5840 5839 5837 5836 5834 5833 5832 5831 5831 5830 5829 5829 5828 5828 5827 5827 5827
5850 5851 5851 5852 5852 5852 5853 5853 5853 5852 5853 5853 5853 5853 5852 5852 5852 5852 5851 5851 5850 5850 5849 5848 5847 5847 5845 5844 5843 5842 5840 5839 5837 5836 5834 5833 5831 5830 5829 5828 5827 5827 5826 5826 5825 5825 5824 5824 5824
5847 5848 5848 5849 5849 5849 5850 5850 5851 5850 5850 5850 5850 5850 5850 5850 5850 5849 5849 5848 5848 5847 5846 5846 5845 5844 5843 5841 5840 5839 5837 5836 5834 5833 5831 5830 5828 5827 5826 5825 5824 5823 5823 5822 5821 5821 5821 5820 5820
5843 5844 5845 5845 5846 5846 5847 5847 5847 5847 5847 5847 5847 5847 5847 5847 5847 5847 5846 5845 5845 5844 5844 5843 5842 5841 5840 5838 5837 5835 5834 5832 5831 5829 5828 5827 5825 5824 5822 5821 5820 5820 5819 5818 5817 5817 5817 5816 5816
5840 5842 5842 5842 5842 5843 5844 5843 5844 5844 5844 5844 5844 5844 5844 5844 5844 5843 5843 5842 5842 5841 5840 5840 5839 5837 5836 5835 5833 5832 5830 5829 5827 5825 5824 5823 5821 5820 5819 5817 5816 5815 5815 5814 5813 5813 5812 5812 5812
5836 5838 5839 5840 5840 5840 5840 5839 5841 5841 5840 5840 5840 5840 5840 5840 5840 5840 5839 5839 5838 5837 5837 5836 5835 5834 5832 5831 5830 5828 5826 5825 5823 5822 5820 5819 5817 5816 5815 5813 5812 5811 5810 5809 5809 5809 5808 5808 5808
5833 5833 5835 5836 5836 5836 5836 5836 5837 5837 5837 5837 5837 5837 5836 5836 5836 5835 5835 5835 5834 5833 5832 5832 5831 5829 5828 5827 5825 5824 5822 5821 5819 5817 5816 5814 5813 5811 5810 5809 5807 5806 5805 5805 5804 5804 5804 5804 5803
5829 5830 5831 5831 5831 5832 5832 5833 5834 5833 5833 5833 5833 5832 5832 5832 5831 5831 5830 5830 5829 5829 5828 5827 5826 5825 5823 5822 5821 5819 5818 5816 5815 5813 5811 5810 5808 5807 5805 5804 5802 5801 5800 5800 5800 5799 5799 5799 5798
5824 5825 5826 5826 5827 5828 5828 5831 5829 5829 5828 5828 5828 5828 5827 5827 5827 5826 5826 5825 5825 5824 5823 5822 5821 5820 5819 5817 5816 5814 5813 5811 5810 5808 5806 5805 5803 5801 5800 5799 5797 5796 5795 5795 5795 5794 5794 5794 5794
5819 5820 5821 5822 5823 5823 5824 5827 5824 5824 5824 5823 5823 5823 5822 5822 5822 5821 5821 5820 5819 5819 5818 5817 5816 5815 5814 5812 5811 5809 5807 5806 5804 5803 5801 5799 5798 5796 5795 5793 5792 5791 5790 5789 5789 5789 5789 5789 5788